RH
79 78 82 85 87 74 17 6 15 15 23 41 72 69 60 56 57 53 56 56 58 64 63 64 55 51 60 59 54 58 57 74 84 64 50 51 62 64 72 83 85 90 94 80
76 77 81 86 89 90 20 7 17 27 26 41 67 58 56 59 53 56 59 61 61 58 63 66 59 59 58 57 58 61 55 64 84 54 52 53 63 56 61 71 72 93 94 70
76 75 81 88 97 97 23 12 37 27 39 56 57 56 53 56 57 59 60 64 62 64 69 63 68 65 64 56 61 65 60 76 69 69 48 68 83 68 70 76 89 79 77 72
82 82 86 93 94 98 40 14 38 53 36 43 64 58 61 61 55 59 60 70 68 69 77 74 73 72 66 55 65 66 72 88 82 78 77 78 75 76 80 89 82 94 69 75
91 91 92 93 97 98 70 9 26 52 46 59 56 56 51 63 62 64 64 70 75 69 78 73 78 69 67 67 70 74 65 83 80 90 72 71 70 61 59 58 63 76 76 78
96 100 100 99 100 100 74 26 18 19 26 61 58 49 46 61 62 66 72 72 71 72 73 60 55 53 54 51 59 66 63 73 84 82 76 72 60 45 50 54 95 81 93 82
100 100 100 100 100 100 100 62 16 21 18 51 56 48 53 74 66 61 65 57 57 51 47 48 49 57 64 64 66 59 68 87 85 96 82 70 36 56 54 92 92 96 85 75
100 100 100 100 100 100 100 95 31 13 24 36 47 47 60 61 61 56 56 54 52 50 52 60 59 49 50 61 64 70 66 68 79 92 95 66 65 78 76 76 94 88 94 85
100 100 100 100 100 100 100 95 31 21 22 46 40 50 52 60 65 60 55 55 55 55 58 64 64 52 52 52 73 70 70 77 75 96 96 86 79 67 58 69 95 76 79 78
100 100 100 100 100 100 100 90 59 52 51 59 57 65 75 55 62 64 65 59 56 55 61 57 64 67 70 73 82 92 89 91 96 93 85 82 61 58 43 87 92 70 68 70
100 100 100 100 100 100 100 94 88 86 86 95 83 85 85 75 68 75 63 56 65 67 69 67 72 85 89 86 74 75 89 92 97 92 98 95 43 44 50 64 58 65 65 67
50 98 100 100 100 100 99 99 98 96 98 99 99 98 94 82 70 66 64 60 66 61 85 93 85 86 91 80 70 54 68 63 81 89 79 49 51 50 52 70 72 74 76 74
35 62 100 100 100 100 100 99 98 99 98 98 97 95 89 81 76 81 70 78 66 68 66 75 82 82 76 84 81 69 55 59 70 57 42 56 54 59 62 66 78 71 81 83
34 92 100 100 100 100 99 96 97 99 97 87 58 58 48 39 39 51 81 76 72 74 75 76 87 82 70 84 69 74 65 68 73 74 61 65 58 60 68 70 74 84 79 79
55 99 100 100 100 100 100 100 99 98 64 66 57 63 55 42 43 40 62 82 71 78 80 90 92 85 81 84 82 93 75 86 94 89 76 90 81 71 68 82 82 77 92 93
100 100 100 100 99 99 94 98 98 98 36 30 80 60 59 54 52 54 62 67 74 75 78 82 78 78 73 88 84 90 88 85 84 84 77 88 74 70 79 82 77 80 96 94
100 100 100 100 100 98 82 59 48 70 32 20 59 68 66 64 63 64 72 77 68 70 71 78 74 75 79 93 97 93 84 82 77 80 86 78 76 92 86 90 87 91 90 91
100 100 100 100 99 89 49 50 55 42 24 30 88 80 65 62 65 81 73 71 69 70 75 92 90 82 90 99 94 86 86 82 75 78 83 88 84 80 88 93 94 95 92 90
99 99 99 97 93 76 56 51 51 40 39 52 67 84 88 71 76 81 87 88 99 96 97 95 91 94 96 93 93 90 94 95 96 88 82 88 89 86 91 96 93 99 92 92
100 98 94 92 74 54 54 49 46 46 54 60 78 75 88 78 80 86 89 97 96 99 88 95 98 93 99 93 89 89 92 92 94 94 92 95 89 90 90 95 94 100 100 96
94 88 95 100 86 52 42 54 59 75 76 74 80 80 92 88 87 94 97 96 96 100 92 96 95 95 93 91 88 90 89 88 91 95 96 96 99 100 97 91 92 97 96 100
66 79 89 77 46 46 62 94 90 89 88 92 91 94 81 85 86 86 98 98 94 100 93 97 96 95 97 91 89 88 88 88 88 91 90 92 94 98 99 97 99 95 97 98
71 52 47 50 64 74 62 77 94 94 86 97 86 85 82 91 84 96 94 95 96 88 96 95 94 96 94 93 91 89 92 90 89 87 89 92 91 92 97 96 97 96 96 96
32 32 76 81 84 84 84 84 92 98 97 83 70 88 84 94 86 99 96 90 93 97 97 95 96 97 94 93 95 95 91 90 90 89 91 92 94 93 95 97 99 96 95 96
26 26 77 92 89 98 96 99 94 90 82 71 76 84 80 94 94 96 92 94 99 94 94 97 98 96 92 91 92 93 92 90 86 92 94 93 94 94 97 96 96 95 95 95
47 73 93 97 89 97 98 88 89 85 73 68 66 91 92 98 98 93 100 97 99 94 95 96 96 91 93 94 94 95 95 81 71 80 80 90 91 94 98 96 96 94 96 94
80 96 91 88 88 96 93 85 80 77 72 96 85 88 86 93 100 100 96 97 95 93 84 87 90 90 93 95 95 94 90 73 73 76 71 70 74 86 91 90 93 96 96 97
Wind_Speed
16 17 16 18 20 21 21 10 5 11 11 4 4 2 3 3 3 3 3 2 1 2 2 3 2 2 1 10 5 3 3 3 3 8 2 1 2 2 4 2 3 1 2 6
19 18 17 17 18 19 20 14 4 8 9 3 2 2 2 1 3 3 3 1 1 1 1 2 1 2 1 9 2 2 1 2 3 6 3 3 4 1 3 1 3 6 3 5
21 20 18 17 16 16 16 6 3 4 6 5 3 2 2 2 2 1 1 1 1 1 1 2 2 2 2 6 2 6 2 2 6 5 3 1 4 4 2 4 4 6 9 17
24 23 21 18 17 13 11 3 1 2 4 3 2 1 2 2 2 1 1 2 1 2 1 3 4 1 5 4 7 2 2 4 3 5 6 5 8 9 6 9 10 7 4 7
28 26 24 21 19 15 11 4 2 2 3 1 0 0 4 5 3 3 3 3 4 3 4 5 5 2 3 6 4 3 5 2 2 4 10 4 7 10 11 12 11 7 9 7
29 29 27 24 23 20 9 8 8 2 2 2 3 4 4 5 3 2 2 3 3 3 7 11 13 13 10 9 3 1 1 1 1 4 3 7 6 4 4 0 5 2 1 3
29 30 29 28 28 25 22 15 8 6 3 5 5 4 7 7 6 2 3 4 3 2 5 15 16 12 13 13 11 11 3 3 2 3 4 2 3 5 2 7 4 4 3 7
33 33 32 30 32 30 28 22 17 7 3 6 5 9 6 4 2 3 5 7 7 6 5 3 5 1 1 2 4 5 8 3 2 1 2 7 2 5 3 2 2 3 3 8
28 30 33 33 32 35 34 25 21 10 1 4 4 5 7 4 3 2 3 3 3 2 2 1 1 2 3 1 0 10 5 3 1 1 2 4 1 5 11 4 4 3 6 11
27 30 34 35 36 38 36 24 27 19 7 6 6 1 2 5 3 1 1 3 3 4 0 2 3 2 1 2 2 3 3 0 3 3 4 6 5 12 7 1 4 20 16 17
30 34 37 42 40 41 36 29 27 26 11 8 13 10 4 3 4 3 4 1 2 1 3 3 3 3 2 1 2 3 4 4 4 2 3 7 15 6 2 3 17 19 22 25
27 32 36 40 41 41 36 24 25 27 13 3 13 12 11 10 6 8 6 0 2 5 2 1 1 2 1 2 2 1 2 3 2 5 4 1 12 5 6 13 19 22 29 29
29 29 36 41 38 32 28 23 25 23 11 4 7 8 11 13 15 12 5 5 5 4 2 4 1 2 3 3 4 1 1 1 1 4 4 16 30 11 9 29 28 34 25 24
27 25 37 37 29 26 25 22 22 22 9 4 6 10 8 6 7 12 16 9 8 6 5 2 1 2 3 2 1 3 1 4 1 5 8 21 5 14 32 38 32 25 32 36
22 28 34 29 28 24 18 16 21 19 6 6 4 11 11 8 5 7 10 11 9 6 2 1 2 2 2 1 1 2 1 2 1 3 12 9 25 35 34 27 32 39 35 37
23 29 32 35 27 21 18 6 16 17 9 3 1 1 5 7 5 5 8 10 8 6 4 3 3 4 4 2 2 4 3 3 5 8 22 25 32 27 18 37 38 38 34 36
33 38 39 28 22 22 9 6 5 18 12 3 3 2 3 4 7 6 7 8 4 4 3 4 4 3 5 1 2 2 8 11 16 11 18 23 21 31 37 35 36 36 37 36
44 38 33 32 27 19 10 12 16 16 9 3 3 1 4 6 3 3 5 5 5 5 4 4 3 4 2 2 1 8 12 17 12 17 22 25 28 34 36 33 35 37 38 39
42 41 38 28 16 8 12 12 9 8 3 4 2 4 2 5 3 4 4 4 1 4 5 3 6 2 2 2 6 10 12 12 19 24 25 25 30 34 35 35 35 34 38 40
48 40 12 7 8 15 14 5 3 2 0 2 3 4 2 3 3 2 3 2 1 1 2 6 2 1 7 4 8 9 11 13 16 22 27 30 33 35 37 36 34 33 35 39
27 7 6 23 22 7 3 3 3 1 0 2 3 3 3 2 3 2 1 2 1 2 2 2 2 2 1 5 8 9 10 12 14 16 19 22 25 28 31 33 32 34 34 35
15 21 26 16 4 3 5 0 1 1 3 4 3 4 4 4 3 3 1 3 1 2 1 0 1 1 4 7 9 10 11 14 16 18 21 23 25 26 26 27 30 31 31 30
27 9 6 3 1 4 5 4 3 1 5 6 5 3 3 3 2 4 2 2 2 0 2 1 2 2 6 8 10 10 12 14 16 18 20 22 24 25 25 27 28 28 29 27
5 4 4 2 0 1 3 3 3 3 6 10 9 5 2 2 2 1 3 1 1 2 1 3 1 5 9 10 11 12 14 15 17 18 20 21 23 25 24 26 27 28 28 28
5 3 3 1 4 4 8 10 9 11 8 7 8 6 2 4 3 2 2 3 1 3 3 1 3 8 11 12 12 13 14 16 16 18 19 20 21 22 23 24 26 27 27 27
4 5 4 6 9 5 8 14 11 8 8 6 4 3 3 2 2 2 3 4 3 2 2 4 9 12 12 11 12 12 13 15 15 15 17 17 18 20 20 21 23 25 28 28
5 5 11 8 12 9 7 7 6 7 2 2 3 3 4 3 3 2 2 3 2 2 5 7 11 13 12 10 11 12 12 13 14 14 16 16 16 15 17 20 21 22 24 25
Wind_Direction
287 301 314 322 328 346 349 354 346 337 349 34 53 60 344 345 8 13 52 99 138 123 358 306 296 315 28 360 329 360 319 144 256 247 220 225 192 204 166 162 274 182 195 264
283 291 301 311 318 339 348 338 325 345 359 86 33 332 315 15 7 19 29 67 60 112 125 314 240 338 188 16 77 131 237 249 320 340 14 32 87 57 119 106 171 201 216 257
276 279 288 297 308 326 339 341 7 7 49 70 119 63 249 272 146 118 100 146 120 92 95 238 243 265 264 331 354 325 219 215 206 214 231 161 262 248 284 179 255 279 249 291
270 273 277 282 291 302 323 331 61 37 309 13 17 50 326 290 277 134 174 116 123 174 217 279 234 210 327 292 358 80 78 235 219 270 265 251 273 282 246 228 238 237 311 265
265 267 266 272 275 279 283 282 193 149 234 248 97 301 223 215 243 205 231 182 169 196 213 221 241 155 182 252 347 70 3 273 352 249 255 317 290 283 267 254 255 249 269 273
264 263 263 262 263 261 248 240 236 194 220 143 113 230 222 219 184 252 246 181 147 240 247 270 274 266 243 254 235 53 331 192 66 273 345 315 288 261 247 129 51 301 197 318
265 266 264 259 258 256 252 245 217 177 238 198 200 207 206 210 210 254 230 192 160 229 285 296 281 270 262 255 259 222 199 166 144 271 339 284 224 4 186 118 76 48 19 345
266 269 266 262 258 257 252 242 220 202 237 211 236 214 204 199 195 242 244 245 253 284 317 353 328 11 318 74 74 242 202 140 229 170 251 301 106 1 338 341 124 64 306 297
267 268 270 266 264 258 253 234 221 204 127 248 263 180 201 185 190 270 213 205 213 253 84 60 287 285 338 204 78 31 109 51 138 199 254 261 98 279 308 224 212 201 299 306
253 260 267 268 266 260 248 224 216 202 194 241 190 212 209 189 180 154 174 174 200 194 199 214 192 249 250 263 215 178 105 138 238 254 263 284 342 340 333 199 326 331 336 324
257 266 268 262 258 257 246 227 222 212 201 217 202 204 220 205 201 145 150 108 207 132 209 219 186 177 222 281 244 185 184 175 210 210 245 269 12 30 51 308 338 329 330 321
258 263 263 258 250 244 234 206 215 216 211 234 217 209 210 223 233 205 186 315 162 209 104 299 2 191 124 151 257 333 245 192 217 194 244 78 345 313 234 343 335 325 319 316
252 250 252 237 230 219 218 205 208 204 203 187 224 226 211 224 235 225 198 207 210 214 194 154 156 234 149 171 236 259 261 54 250 360 337 330 328 325 342 327 324 320 311 299
247 242 237 218 198 200 207 207 209 190 155 145 194 197 189 193 222 221 220 221 202 197 181 143 157 220 204 204 182 172 200 337 355 264 313 335 103 325 317 318 319 314 307 309
232 229 216 185 188 194 196 197 183 183 165 174 210 180 192 200 230 227 211 204 185 165 149 107 217 232 169 180 89 239 44 120 123 265 308 289 290 309 322 317 312 317 317 314
212 215 175 180 182 179 160 155 194 192 156 167 166 181 169 190 220 203 190 193 189 178 184 195 226 215 192 123 211 138 60 331 304 276 299 298 305 315 319 315 323 322 315 308
188 173 173 179 168 160 139 161 180 169 178 209 85 58 130 156 144 146 171 176 174 171 185 206 204 202 184 123 229 160 334 328 323 318 322 321 322 313 325 325 323 320 317 315
168 168 163 167 163 134 116 118 141 165 180 193 101 301 152 169 149 140 163 165 179 193 196 177 184 149 172 225 158 338 338 329 318 319 326 320 322 328 329 328 325 324 322 323
166 162 155 138 121 117 138 138 148 172 160 129 112 143 210 160 149 144 146 170 150 203 212 202 159 169 226 108 351 345 342 332 316 323 331 338 334 335 332 331 332 326 324 325
155 144 123 90 132 142 139 137 139 170 176 121 120 145 169 154 152 95 140 139 149 209 231 154 186 149 128 31 355 338 328 327 331 333 339 342 341 340 336 333 333 329 325 326
137 101 87 134 131 124 113 86 65 47 42 170 144 163 127 140 116 147 125 154 39 81 250 203 207 145 113 337 344 341 337 339 344 340 342 343 341 338 335 336 339 338 337 334
132 124 126 118 123 91 93 84 334 121 221 165 146 122 119 129 132 120 125 129 69 231 320 50 221 143 359 343 343 344 342 345 349 351 348 350 350 349 344 344 346 343 344 345
103 92 121 159 117 73 130 185 293 295 183 168 152 104 106 108 113 93 114 95 206 227 75 203 167 36 348 343 338 342 346 346 348 350 352 353 355 357 355 355 354 353 354 357
78 76 62 68 290 267 172 166 151 126 149 141 134 105 119 106 92 149 94 234 32 52 60 224 228 355 356 348 341 339 344 348 349 350 352 355 358 360 4 6 3 3 3 6
92 102 102 101 115 96 118 115 112 116 129 135 113 83 89 31 80 28 70 35 289 197 220 191 350 339 340 346 344 342 342 347 348 349 352 355 357 359 6 13 13 13 11 13
75 71 89 114 97 88 104 115 108 120 128 104 80 92 60 15 125 70 210 122 226 236 237 320 314 318 325 332 340 341 344 346 344 346 349 353 356 359 6 13 18 22 22 22
62 58 94 104 108 117 113 111 109 124 112 103 102 76 196 118 48 330 196 195 210 327 336 321 312 314 320 320 331 337 342 345 348 352 356 358 357 360 8 13 20 26 29 29